| time (UTC) | temp F | wind direction | speed MPH | gust MPH | rain 1hr in | rain 24hr in | rain mn in | humidity % | barometer mb |
| 20260506043909 | 47 | 281 | 0.0 | 0.0 | 0.00 | 0.00 | 0.00 | 65 | 1008.5 |
| 20260506043406 | 47 | 326 | 1.0 | 1.0 | 0.00 | 0.00 | 0.00 | 64 | 1008.6 |
| 20260506042904 | 47 | 302 | 2.0 | 2.0 | 0.00 | 0.00 | 0.00 | 65 | 1008.6 |
| 20260506042403 | 47 | 275 | 0.0 | 0.0 | 0.00 | 0.00 | 0.00 | 66 | 1008.6 |
| 20260506041901 | 47 | 308 | 0.0 | 0.0 | 0.00 | 0.00 | 0.00 | 66 | 1008.6 |
| 20260506041358 | 47 | 267 | 0.0 | 0.0 | 0.00 | 0.00 | 0.00 | 65 | 1008.4 |
| 20260506040855 | 47 | 273 | 0.0 | 0.0 | 0.00 | 0.00 | 0.00 | 65 | 1008.7 |
| 20260506040353 | 47 | 269 | 0.0 | 0.0 | 0.00 | 0.00 | 0.00 | 66 | 1008.7 |
| 20260506035849 | 47 | 285 | 0.0 | 1.0 | 0.00 | 0.01 | 0.01 | 65 | 1008.7 |
| 20260506035346 | 47 | 284 | 0.0 | 0.0 | 0.00 | 0.01 | 0.01 | 65 | 1008.5 |
| 20260506034843 | 47 | 253 | 1.0 | 1.0 | 0.00 | 0.01 | 0.01 | 66 | 1008.8 |
| 20260506034340 | 47 | 288 | 0.0 | 0.0 | 0.00 | 0.01 | 0.01 | 66 | 1008.6 |
| 20260506033837 | 47 | 253 | 1.0 | 1.0 | 0.00 | 0.01 | 0.01 | 65 | 1008.7 |
| 20260506033334 | 47 | 262 | 2.0 | 2.0 | 0.00 | 0.01 | 0.01 | 65 | 1008.4 |
| 20260506032831 | 47 | 301 | 0.0 | 0.0 | 0.00 | 0.01 | 0.01 | 65 | 1008.5 |
| 20260506032328 | 47 | 277 | 0.0 | 0.0 | 0.00 | 0.01 | 0.01 | 64 | 1008.2 |
| 20260506031825 | 47 | 284 | 1.0 | 1.0 | 0.00 | 0.01 | 0.01 | 63 | 1008.5 |
| 20260506031322 | 47 | 267 | 0.0 | 1.0 | 0.00 | 0.01 | 0.01 | 64 | 1008.6 |
| 20260506030820 | 47 | 238 | 0.0 | 0.0 | 0.00 | 0.01 | 0.01 | 62 | 1008.2 |
| 20260506030318 | 47 | 229 | 1.0 | 1.0 | 0.00 | 0.01 | 0.01 | 62 | 1008.4 |
| 20260506025814 | 48 | 278 | 0.0 | 0.0 | 0.00 | 0.01 | 0.01 | 61 | 1008.4 |
| 20260506025311 | 48 | 260 | 0.0 | 0.0 | 0.00 | 0.01 | 0.01 | 61 | 1008.2 |
| 20260506024808 | 48 | 267 | 1.0 | 1.0 | 0.00 | 0.01 | 0.01 | 60 | 1008.1 |
| 20260506024304 | 48 | 292 | 0.0 | 1.0 | 0.00 | 0.01 | 0.01 | 61 | 1008.2 |
| 20260506023800 | 48 | 274 | 1.0 | 1.0 | 0.00 | 0.01 | 0.01 | 60 | 1008.6 |
| 20260506023258 | 48 | 241 | 0.0 | 0.0 | 0.00 | 0.01 | 0.01 | 60 | 1008.0 |
| 20260506022754 | 49 | 235 | 2.0 | 2.0 | 0.00 | 0.01 | 0.01 | 58 | 1008.1 |
| 20260506022252 | 49 | 281 | 1.0 | 1.0 | 0.00 | 0.01 | 0.01 | 59 | 1008.0 |
| 20260506021750 | 49 | 282 | 1.0 | 1.0 | 0.00 | 0.01 | 0.01 | 58 | 1008.2 |
| 20260506021247 | 49 | 284 | 1.0 | 1.0 | 0.00 | 0.01 | 0.01 | 58 | 1008.0 |
| 20260506020743 | 49 | 244 | 1.0 | 2.0 | 0.00 | 0.01 | 0.01 | 57 | 1008.2 |
| 20260506020241 | 49 | 252 | 0.0 | 0.0 | 0.00 | 0.01 | 0.01 | 57 | 1008.1 |
| 20260506015739 | 50 | 257 | 2.0 | 2.0 | 0.00 | 0.01 | 0.01 | 56 | 1007.9 |
| 20260506015236 | 50 | 250 | 2.0 | 2.0 | 0.00 | 0.01 | 0.01 | 56 | 1007.8 |
| 20260506014733 | 50 | 283 | 1.0 | 1.0 | 0.00 | 0.01 | 0.01 | 55 | 1007.9 |
| 20260506014229 | 50 | 277 | 0.0 | 0.0 | 0.00 | 0.01 | 0.01 | 55 | 1007.7 |
| 20260506013726 | 50 | 276 | 6.0 | 7.0 | 0.00 | 0.01 | 0.01 | 54 | 1007.7 |
| 20260506013224 | 50 | 295 | 0.0 | 1.0 | 0.00 | 0.01 | 0.01 | 55 | 1007.6 |
| 20260506012720 | 51 | 265 | 0.0 | 1.0 | 0.00 | 0.01 | 0.01 | 54 | 1007.7 |
| 20260506012217 | 51 | 299 | 0.0 | 1.0 | 0.00 | 0.01 | 0.01 | 54 | 1007.6 |
| 20260506011714 | 51 | 241 | 2.0 | 3.0 | 0.00 | 0.01 | 0.01 | 53 | 1007.3 |
| 20260506011210 | 51 | 308 | 0.0 | 1.0 | 0.00 | 0.01 | 0.01 | 53 | 1007.6 |
| 20260506010709 | 51 | 261 | 0.0 | 0.0 | 0.00 | 0.01 | 0.01 | 53 | 1007.4 |
| 20260506010206 | 51 | 238 | 0.0 | 0.0 | 0.00 | 0.01 | 0.01 | 53 | 1007.4 |
| 20260506005703 | 51 | 238 | 4.0 | 5.0 | 0.00 | 0.01 | 0.01 | 52 | 1007.3 |
| 20260506005200 | 52 | 291 | 1.0 | 2.0 | 0.00 | 0.01 | 0.01 | 51 | 1007.3 |
| 20260506004655 | 51 | 272 | 3.0 | 3.0 | 0.00 | 0.01 | 0.01 | 51 | 1007.2 |
| 20260506004153 | 52 | 272 | 0.0 | 1.0 | 0.00 | 0.01 | 0.01 | 52 | 1007.3 |
| 20260506003649 | 52 | 125 | 1.0 | 1.0 | 0.00 | 0.01 | 0.01 | 51 | 1007.5 |
| 20260506003146 | 52 | 231 | 3.0 | 5.0 | 0.00 | 0.01 | 0.01 | 50 | 1007.3 |
| 20260506002641 | 52 | 212 | 3.0 | 3.0 | 0.00 | 0.01 | 0.01 | 50 | 1007.4 |
| 20260506002138 | 52 | 287 | 3.0 | 5.0 | 0.00 | 0.01 | 0.01 | 50 | 1007.5 |
| 20260506001633 | 52 | 198 | 2.0 | 2.0 | 0.00 | 0.01 | 0.01 | 49 | 1007.4 |
| 20260506001131 | 52 | 247 | 4.0 | 5.0 | 0.00 | 0.01 | 0.01 | 48 | 1007.3 |
| 20260506000628 | 53 | 258 | 1.0 | 1.0 | 0.00 | 0.01 | 0.01 | 49 | 1007.3 |
| 20260506000125 | 53 | 268 | 4.0 | 5.0 | 0.00 | 0.01 | 0.01 | 48 | 1007.1 |
| 20260505235624 | 53 | 292 | 5.0 | 8.0 | 0.00 | 0.01 | 0.01 | 47 | 1007.0 |
| 20260505235120 | 53 | 244 | 5.0 | 7.0 | 0.00 | 0.01 | 0.01 | 47 | 1006.9 |
| 20260505234617 | 53 | 229 | 6.0 | 7.0 | 0.00 | 0.01 | 0.01 | 47 | 1006.8 |
| 20260505234114 | 53 | 307 | 2.0 | 2.0 | 0.00 | 0.01 | 0.01 | 49 | 1006.8 |
| 20260505233611 | 53 | 323 | 2.0 | 3.0 | 0.00 | 0.01 | 0.01 | 48 | 1006.8 |
| 20260505233109 | 53 | 248 | 2.0 | 2.0 | 0.00 | 0.01 | 0.01 | 47 | 1006.6 |
| 20260505232606 | 54 | 335 | 7.0 | 8.0 | 0.00 | 0.01 | 0.01 | 46 | 1006.5 |
| 20260505232104 | 54 | 205 | 6.0 | 8.0 | 0.00 | 0.01 | 0.01 | 46 | 1006.8 |
| 20260505231600 | 54 | 227 | 3.0 | 5.0 | 0.00 | 0.01 | 0.01 | 45 | 1006.7 |
| 20260505231059 | 54 | 233 | 5.0 | 6.0 | 0.00 | 0.01 | 0.01 | 45 | 1006.7 |
| 20260505230556 | 54 | 269 | 7.0 | 9.0 | 0.00 | 0.01 | 0.01 | 44 | 1006.6 |
| 20260505230052 | 55 | 261 | 5.0 | 6.0 | 0.00 | 0.01 | 0.01 | 43 | 1006.4 |
| 20260505225549 | 55 | 271 | 3.0 | 3.0 | 0.00 | 0.01 | 0.01 | 43 | 1006.6 |
| 20260505225045 | 55 | 291 | 1.0 | 1.0 | 0.00 | 0.01 | 0.01 | 43 | 1006.7 |
| 20260505224543 | 55 | 289 | 3.0 | 3.0 | 0.00 | 0.01 | 0.01 | 43 | 1006.6 |
| 20260505224040 | 55 | 277 | 3.0 | 5.0 | 0.00 | 0.01 | 0.01 | 42 | 1006.7 |
| 20260505223537 | 55 | 209 | 3.0 | 3.0 | 0.00 | 0.01 | 0.01 | 42 | 1006.8 |
| 20260505223033 | 55 | 276 | 9.0 | 13.0 | 0.00 | 0.01 | 0.01 | 41 | 1007.0 |
| 20260505222529 | 56 | 324 | 10.0 | 13.0 | 0.00 | 0.01 | 0.01 | 41 | 1006.7 |
| 20260505222026 | 56 | 238 | 1.0 | 2.0 | 0.00 | 0.01 | 0.01 | 43 | 1006.7 |
| 20260505221523 | 56 | 311 | 3.0 | 5.0 | 0.00 | 0.01 | 0.01 | 42 | 1006.6 |
| 20260505221019 | 56 | 249 | 5.0 | 7.0 | 0.00 | 0.01 | 0.01 | 43 | 1006.5 |
| 20260505220517 | 56 | 265 | 3.0 | 3.0 | 0.00 | 0.01 | 0.01 | 42 | 1006.7 |
| 20260505220015 | 56 | 256 | 7.0 | 9.0 | 0.00 | 0.01 | 0.01 | 41 | 1006.8 |
| 20260505215512 | 56 | 243 | 11.0 | 13.0 | 0.00 | 0.01 | 0.01 | 42 | 1006.7 |
| 20260505215010 | 57 | 249 | 3.0 | 5.0 | 0.00 | 0.01 | 0.01 | 42 | 1006.5 |
| 20260505214508 | 57 | 206 | 2.0 | 2.0 | 0.00 | 0.01 | 0.01 | 43 | 1006.7 |
| 20260505214004 | 56 | 319 | 5.0 | 7.0 | 0.00 | 0.01 | 0.01 | 42 | 1006.7 |
| 20260505213502 | 57 | 236 | 2.0 | 3.0 | 0.00 | 0.01 | 0.01 | 44 | 1006.7 |
| 20260505212958 | 57 | 226 | 6.0 | 9.0 | 0.00 | 0.01 | 0.01 | 42 | 1006.4 |
| 20260505212455 | 57 | 285 | 2.0 | 3.0 | 0.00 | 0.01 | 0.01 | 43 | 1006.6 |
| 20260505211952 | 57 | 290 | 2.0 | 3.0 | 0.00 | 0.01 | 0.01 | 44 | 1006.6 |
| 20260505211449 | 57 | 246 | 3.0 | 6.0 | 0.00 | 0.01 | 0.01 | 43 | 1006.8 |
| 20260505210945 | 57 | 259 | 3.0 | 5.0 | 0.00 | 0.01 | 0.01 | 44 | 1006.7 |
| 20260505210443 | 57 | 282 | 2.0 | 2.0 | 0.00 | 0.01 | 0.01 | 44 | 1006.7 |
| 20260505205939 | 57 | 198 | 1.0 | 2.0 | 0.00 | 0.01 | 0.01 | 46 | 1006.6 |
| 20260505205438 | 57 | 294 | 4.0 | 7.0 | 0.00 | 0.01 | 0.01 | 45 | 1006.6 |
| 20260505204934 | 57 | 236 | 3.0 | 5.0 | 0.00 | 0.01 | 0.01 | 45 | 1006.6 |
| 20260505204432 | 58 | 247 | 4.0 | 6.0 | 0.00 | 0.01 | 0.01 | 49 | 1006.5 |
| 20260505203929 | 57 | 229 | 2.0 | 2.0 | 0.00 | 0.01 | 0.01 | 50 | 1006.5 |
| 20260505203425 | 57 | 307 | 3.0 | 3.0 | 0.00 | 0.01 | 0.01 | 49 | 1006.5 |
| 20260505202922 | 58 | 199 | 2.0 | 3.0 | 0.00 | 0.01 | 0.01 | 48 | 1006.5 |
| 20260505202418 | 57 | 241 | 5.0 | 6.0 | 0.00 | 0.01 | 0.01 | 52 | 1006.8 |
| 20260505201915 | 57 | 211 | 2.0 | 2.0 | 0.00 | 0.01 | 0.01 | 55 | 1006.5 |
| 20260505201412 | 57 | 291 | 6.0 | 7.0 | 0.00 | 0.01 | 0.01 | 53 | 1006.7 |
| 20260505200910 | 57 | 208 | 5.0 | 9.0 | 0.00 | 0.01 | 0.01 | 54 | 1006.9 |
| 20260505200407 | 57 | 237 | 3.0 | 5.0 | 0.00 | 0.01 | 0.01 | 54 | 1006.8 |
| 20260505195902 | 57 | 219 | 5.0 | 6.0 | 0.00 | 0.01 | 0.01 | 51 | 1006.4 |
| 20260505195400 | 57 | 253 | 4.0 | 6.0 | 0.00 | 0.01 | 0.01 | 51 | 1006.6 |
| 20260505194857 | 57 | 233 | 3.0 | 3.0 | 0.00 | 0.01 | 0.01 | 52 | 1006.8 |
| 20260505194354 | 57 | 281 | 6.0 | 7.0 | 0.00 | 0.01 | 0.01 | 50 | 1006.8 |
| 20260505193849 | 57 | 354 | 2.0 | 2.0 | 0.00 | 0.01 | 0.01 | 51 | 1006.4 |
| 20260505193347 | 57 | 264 | 2.0 | 3.0 | 0.00 | 0.01 | 0.01 | 52 | 1006.6 |
| 20260505192844 | 57 | 240 | 2.0 | 3.0 | 0.00 | 0.01 | 0.01 | 52 | 1006.5 |
| 20260505192343 | 57 | 230 | 5.0 | 7.0 | 0.00 | 0.01 | 0.01 | 53 | 1006.6 |
| 20260505191840 | 57 | 248 | 5.0 | 6.0 | 0.00 | 0.01 | 0.01 | 54 | 1006.5 |
| 20260505191338 | 57 | 221 | 3.0 | 5.0 | 0.00 | 0.01 | 0.01 | 55 | 1006.8 |
| 20260505190835 | 58 | 266 | 6.0 | 8.0 | 0.00 | 0.01 | 0.01 | 54 | 1006.6 |
| 20260505190330 | 57 | 214 | 3.0 | 5.0 | 0.00 | 0.01 | 0.01 | 55 | 1006.4 |
| 20260505185826 | 59 | 177 | 2.0 | 2.0 | 0.00 | 0.01 | 0.01 | 58 | 1006.7 |
| 20260505185322 | 57 | 256 | 0.0 | 1.0 | 0.00 | 0.01 | 0.01 | 59 | 1006.6 |
| 20260505184819 | 57 | 224 | 2.0 | 5.0 | 0.00 | 0.01 | 0.01 | 60 | 1006.4 |
| 20260505184316 | 56 | 174 | 5.0 | 8.0 | 0.00 | 0.01 | 0.01 | 61 | 1006.7 |
| 20260505183813 | 56 | 272 | 3.0 | 6.0 | 0.00 | 0.01 | 0.01 | 60 | 1006.5 |
| 20260505183310 | 57 | 261 | 2.0 | 3.0 | 0.00 | 0.01 | 0.01 | 61 | 1006.2 |
| 20260505182807 | 56 | 307 | 3.0 | 5.0 | 0.00 | 0.01 | 0.01 | 62 | 1006.3 |
| 20260505182306 | 56 | 291 | 5.0 | 6.0 | 0.00 | 0.01 | 0.01 | 61 | 1006.3 |
| 20260505181800 | 56 | 254 | 2.0 | 2.0 | 0.00 | 0.01 | 0.01 | 70 | 1006.3 |
| 20260505181257 | 56 | 230 | 1.0 | 2.0 | 0.00 | 0.01 | 0.01 | 70 | 1006.2 |
| 20260505180754 | 56 | 223 | 1.0 | 2.0 | 0.00 | 0.01 | 0.01 | 69 | 1006.2 |
| 20260505180250 | 56 | 280 | 7.0 | 10.0 | 0.00 | 0.01 | 0.01 | 67 | 1006.3 |
| 20260505175747 | 56 | 245 | 1.0 | 2.0 | 0.00 | 0.01 | 0.01 | 69 | 1006.1 |
| 20260505175243 | 55 | 277 | 1.0 | 2.0 | 0.00 | 0.01 | 0.01 | 71 | 1006.1 |
| 20260505174740 | 54 | 315 | 5.0 | 7.0 | 0.00 | 0.01 | 0.01 | 72 | 1006.0 |
| 20260505174237 | 54 | 286 | 3.0 | 5.0 | 0.00 | 0.01 | 0.01 | 72 | 1006.1 |
| 20260505173733 | 54 | 227 | 5.0 | 6.0 | 0.00 | 0.01 | 0.01 | 72 | 1005.8 |
| 20260505173230 | 54 | 227 | 2.0 | 3.0 | 0.00 | 0.01 | 0.01 | 73 | 1006.1 |
| 20260505172727 | 54 | 213 | 3.0 | 3.0 | 0.00 | 0.01 | 0.01 | 74 | 1006.3 |
| 20260505172224 | 54 | 200 | 1.0 | 1.0 | 0.00 | 0.01 | 0.01 | 73 | 1006.3 |
| 20260505171724 | 54 | 253 | 0.0 | 0.0 | 0.00 | 0.01 | 0.01 | 74 | 1006.0 |
| 20260505171221 | 53 | 293 | 1.0 | 2.0 | 0.00 | 0.01 | 0.01 | 73 | 1006.2 |
| 20260505170718 | 54 | 256 | 2.0 | 2.0 | 0.00 | 0.01 | 0.01 | 73 | 1006.1 |
| 20260505170215 | 53 | 308 | 0.0 | 0.0 | 0.00 | 0.01 | 0.01 | 73 | 1006.0 |
| 20260505165710 | 54 | 279 | 0.0 | 0.0 | 0.00 | 0.01 | 0.01 | 73 | 1006.0 |
| 20260505165206 | 53 | 338 | 0.0 | 0.0 | 0.00 | 0.01 | 0.01 | 74 | 1006.0 |
| 20260505164702 | 54 | 1 | 0.0 | 1.0 | 0.00 | 0.01 | 0.01 | 74 | 1006.3 |
| 20260505164159 | 53 | 261 | 2.0 | 3.0 | 0.00 | 0.01 | 0.01 | 75 | 1006.4 |
| 20260505163657 | 52 | 273 | 2.0 | 3.0 | 0.00 | 0.01 | 0.01 | 77 | 1006.4 |
| 20260505163155 | 52 | 274 | 0.0 | 0.0 | 0.00 | 0.01 | 0.01 | 78 | 1006.5 |
| 20260505162653 | 53 | 268 | 2.0 | 3.0 | 0.00 | 0.01 | 0.01 | 77 | 1006.1 |
| 20260505162150 | 52 | 221 | 1.0 | 2.0 | 0.00 | 0.01 | 0.01 | 80 | 1006.4 |
| 20260505161646 | 51 | 216 | 1.0 | 1.0 | 0.00 | 0.01 | 0.01 | 81 | 1006.4 |
| 20260505161144 | 51 | 274 | 1.0 | 2.0 | 0.00 | 0.01 | 0.01 | 82 | 1006.3 |
| 20260505160642 | 51 | 273 | 3.0 | 3.0 | 0.00 | 0.01 | 0.01 | 80 | 1006.4 |
| 20260505160139 | 51 | 320 | 1.0 | 1.0 | 0.00 | 0.01 | 0.01 | 81 | 1006.3 |
| 20260505153118 | 50 | 267 | 0.0 | 0.0 | 0.00 | 0.01 | 0.01 | 81 | 1006.9 |
| 20260505152615 | 50 | 224 | 1.0 | 1.0 | 0.00 | 0.01 | 0.01 | 83 | 1006.5 |
| 20260505152110 | 50 | 293 | 0.0 | 0.0 | 0.00 | 0.01 | 0.01 | 85 | 1006.7 |
| 20260505151606 | 49 | 287 | 0.0 | 0.0 | 0.00 | 0.01 | 0.01 | 85 | 1006.3 |
| 20260505151104 | 49 | 287 | 0.0 | 0.0 | 0.00 | 0.01 | 0.01 | 87 | 1006.4 |
| 20260505150600 | 49 | 269 | 0.0 | 0.0 | 0.00 | 0.01 | 0.01 | 87 | 1006.5 |
| 20260505140525 | 49 | 284 | 0.0 | 0.0 | 0.00 | 0.00 | 0.00 | 76 | 1006.0 |
| 20260505124938 | 50 | 44 | 1.0 | 1.0 | 0.00 | 0.00 | 0.00 | 70 | 1004.4 |
| 20260505124435 | 50 | 357 | 2.0 | 2.0 | 0.00 | 0.00 | 0.00 | 69 | 1004.3 |
| 20260505123931 | 50 | 67 | 0.0 | 0.0 | 0.00 | 0.00 | 0.00 | 70 | 1004.0 |
| 20260505123428 | 50 | 77 | 1.0 | 2.0 | 0.00 | 0.00 | 0.00 | 70 | 1004.2 |
| 20260505122924 | 49 | 347 | 2.0 | 3.0 | 0.00 | 0.00 | 0.00 | 70 | 1004.3 |
| 20260505122422 | 49 | 76 | 1.0 | 1.0 | 0.00 | 0.00 | 0.00 | 70 | 1004.2 |
| 20260505121918 | 49 | 57 | 1.0 | 1.0 | 0.00 | 0.00 | 0.00 | 71 | 1004.0 |
| 20260505121415 | 49 | 69 | 0.0 | 0.0 | 0.00 | 0.00 | 0.00 | 71 | 1003.9 |
| 20260505120911 | 49 | 47 | 0.0 | 0.0 | 0.00 | 0.00 | 0.00 | 71 | 1003.7 |
| 20260505120407 | 49 | 59 | 1.0 | 1.0 | 0.00 | 0.00 | 0.00 | 69 | 1003.7 |
| 20260505115906 | 49 | 68 | 1.0 | 1.0 | 0.00 | 0.00 | 0.00 | 70 | 1003.7 |
| 20260505115403 | 49 | 352 | 3.0 | 3.0 | 0.00 | 0.00 | 0.00 | 70 | 1004.0 |
| 20260505114901 | 49 | 44 | 2.0 | 2.0 | 0.00 | 0.00 | 0.00 | 70 | 1003.4 |
| 20260505114357 | 49 | 24 | 1.0 | 1.0 | 0.00 | 0.00 | 0.00 | 70 | 1004.0 |
| 20260505113854 | 49 | 16 | 3.0 | 5.0 | 0.00 | 0.00 | 0.00 | 69 | 1003.5 |
| 20260505113350 | 50 | 37 | 2.0 | 2.0 | 0.00 | 0.00 | 0.00 | 69 | 1003.5 |
| 20260505112846 | 49 | 75 | 1.0 | 1.0 | 0.00 | 0.00 | 0.00 | 69 | 1003.2 |
| 20260505112344 | 49 | 71 | 0.0 | 1.0 | 0.00 | 0.00 | 0.00 | 71 | 1003.1 |
| 20260505111840 | 49 | 42 | 2.0 | 2.0 | 0.00 | 0.00 | 0.00 | 71 | 1002.9 |
| 20260505111335 | 48 | 78 | 0.0 | 0.0 | 0.00 | 0.00 | 0.00 | 74 | 1002.9 |
| 20260505110831 | 48 | 36 | 1.0 | 2.0 | 0.00 | 0.00 | 0.00 | 76 | 1002.8 |
| 20260505110329 | 48 | 299 | 3.0 | 5.0 | 0.00 | 0.00 | 0.00 | 76 | 1002.4 |
| 20260505101804 | 49 | 347 | 0.0 | 1.0 | 0.00 | 0.00 | 0.00 | 85 | 1001.8 |
| 20260505101258 | 49 | 39 | 3.0 | 3.0 | 0.00 | 0.00 | 0.00 | 86 | 1001.3 |
| 20260505100755 | 49 | 29 | 4.0 | 6.0 | 0.00 | 0.00 | 0.00 | 87 | 1001.3 |
| 20260505100252 | 50 | 347 | 4.0 | 5.0 | 0.00 | 0.00 | 0.00 | 87 | 1001.2 |
| 20260505095748 | 50 | 273 | 3.0 | 5.0 | 0.00 | 0.00 | 0.00 | 86 | 1001.0 |
| 20260505095246 | 52 | 334 | 3.0 | 3.0 | 0.00 | 0.00 | 0.00 | 85 | 1000.9 |
| 20260505094741 | 54 | 306 | 2.0 | 2.0 | 0.00 | 0.00 | 0.00 | 85 | 1000.5 |
| 20260505094238 | 57 | 315 | 5.0 | 7.0 | 0.00 | 0.00 | 0.00 | 89 | 1000.3 |
| 20260505093734 | 57 | 280 | 4.0 | 5.0 | 0.00 | 0.00 | 0.00 | 89 | 1000.4 |
| 20260505093231 | 57 | 230 | 2.0 | 2.0 | 0.00 | 0.00 | 0.00 | 88 | 1000.2 |
| 20260505092728 | 57 | 248 | 4.0 | 5.0 | 0.00 | 0.00 | 0.00 | 88 | 1000.0 |
| 20260505092227 | 57 | 291 | 2.0 | 2.0 | 0.00 | 0.00 | 0.00 | 88 | 999.8 |
| 20260505091724 | 57 | 234 | 2.0 | 3.0 | 0.00 | 0.00 | 0.00 | 88 | 999.9 |
| 20260505091222 | 58 | 291 | 2.0 | 2.0 | 0.00 | 0.00 | 0.00 | 88 | 999.8 |
| 20260505090719 | 58 | 261 | 4.0 | 6.0 | 0.00 | 0.00 | 0.00 | 88 | 999.8 |
| 20260505090218 | 58 | 284 | 3.0 | 3.0 | 0.00 | 0.00 | 0.00 | 87 | 999.8 |
| 20260505085714 | 58 | 284 | 2.0 | 3.0 | 0.00 | 0.00 | 0.00 | 87 | 1000.0 |
| 20260505085213 | 58 | 250 | 2.0 | 3.0 | 0.00 | 0.00 | 0.00 | 87 | 999.8 |
| 20260505084709 | 58 | 263 | 0.0 | 0.0 | 0.00 | 0.00 | 0.00 | 86 | 999.7 |
| 20260505084209 | 59 | 231 | 2.0 | 2.0 | 0.00 | 0.00 | 0.00 | 86 | 999.7 |
| 20260505083705 | 59 | 285 | 3.0 | 5.0 | 0.00 | 0.00 | 0.00 | 86 | 999.6 |
| 20260505083202 | 59 | 292 | 3.0 | 3.0 | 0.00 | 0.00 | 0.00 | 85 | 999.5 |
| 20260505082657 | 59 | 218 | 1.0 | 2.0 | 0.00 | 0.00 | 0.00 | 85 | 999.5 |
| 20260505082155 | 59 | 267 | 0.0 | 0.0 | 0.00 | 0.00 | 0.00 | 85 | 999.5 |
| 20260505081650 | 59 | 237 | 1.0 | 2.0 | 0.00 | 0.00 | 0.00 | 84 | 999.2 |
| 20260505081148 | 59 | 279 | 4.0 | 6.0 | 0.00 | 0.00 | 0.00 | 84 | 999.2 |
| 20260505080645 | 59 | 247 | 1.0 | 2.0 | 0.00 | 0.00 | 0.00 | 84 | 999.4 |
| 20260505080141 | 59 | 252 | 3.0 | 3.0 | 0.00 | 0.00 | 0.00 | 84 | 999.2 |
| 20260505075637 | 59 | 274 | 0.0 | 0.0 | 0.00 | 0.00 | 0.00 | 83 | 999.0 |
| 20260505075134 | 59 | 228 | 3.0 | 3.0 | 0.00 | 0.00 | 0.00 | 84 | 998.7 |
| 20260505074631 | 59 | 298 | 3.0 | 3.0 | 0.00 | 0.00 | 0.00 | 83 | 998.9 |
| 20260505074128 | 59 | 301 | 1.0 | 2.0 | 0.00 | 0.00 | 0.00 | 83 | 998.5 |
| 20260505073626 | 60 | 264 | 2.0 | 3.0 | 0.00 | 0.00 | 0.00 | 82 | 998.6 |
| 20260505073124 | 60 | 253 | 2.0 | 2.0 | 0.00 | 0.00 | 0.00 | 82 | 998.5 |
| 20260505072619 | 60 | 189 | 4.0 | 5.0 | 0.00 | 0.00 | 0.00 | 82 | 998.5 |
| 20260505072116 | 60 | 252 | 0.0 | 0.0 | 0.00 | 0.00 | 0.00 | 82 | 998.6 |
| 20260505071611 | 60 | 254 | 2.0 | 3.0 | 0.00 | 0.00 | 0.00 | 82 | 998.7 |
| 20260505071110 | 60 | 200 | 2.0 | 2.0 | 0.00 | 0.00 | 0.00 | 81 | 998.4 |
| 20260505070606 | 60 | 206 | 3.0 | 5.0 | 0.00 | 0.00 | 0.00 | 81 | 998.3 |
| 20260505065558 | 60 | 198 | 4.0 | 5.0 | 0.00 | 0.00 | 0.00 | 80 | 998.6 |
| 20260505065055 | 60 | 293 | 1.0 | 1.0 | 0.00 | 0.00 | 0.00 | 80 | 998.6 |
| 20260505064552 | 61 | 229 | 1.0 | 1.0 | 0.00 | 0.00 | 0.00 | 80 | 998.6 |
| 20260505064051 | 61 | 214 | 2.0 | 2.0 | 0.00 | 0.00 | 0.00 | 80 | 998.5 |
| 20260505063548 | 61 | 258 | 3.0 | 5.0 | 0.00 | 0.00 | 0.00 | 80 | 998.7 |
| 20260505063043 | 61 | 300 | 3.0 | 5.0 | 0.00 | 0.00 | 0.00 | 81 | 998.8 |
| 20260505062540 | 61 | 274 | 2.0 | 3.0 | 0.00 | 0.00 | 0.00 | 80 | 998.7 |
| 20260505062037 | 62 | 197 | 2.0 | 2.0 | 0.00 | 0.00 | 0.00 | 79 | 998.6 |
| 20260505061535 | 62 | 137 | 1.0 | 1.0 | 0.00 | 0.00 | 0.00 | 78 | 998.6 |
| 20260505061033 | 62 | 212 | 2.0 | 5.0 | 0.00 | 0.00 | 0.00 | 78 | 998.6 |
| 20260505060530 | 62 | 206 | 2.0 | 3.0 | 0.00 | 0.00 | 0.00 | 77 | 998.8 |
| 20260505060026 | 62 | 218 | 3.0 | 3.0 | 0.00 | 0.00 | 0.00 | 77 | 998.9 |
| 20260505055522 | 63 | 308 | 1.0 | 1.0 | 0.00 | 0.00 | 0.00 | 76 | 998.7 |
| 20260505055019 | 63 | 294 | 0.0 | 1.0 | 0.00 | 0.00 | 0.00 | 77 | 998.7 |
| 20260505054516 | 63 | 229 | 2.0 | 3.0 | 0.00 | 0.00 | 0.00 | 77 | 998.7 |
| 20260505054014 | 63 | 166 | 2.0 | 2.0 | 0.00 | 0.00 | 0.00 | 75 | 998.6 |
| 20260505053511 | 64 | 200 | 4.0 | 6.0 | 0.00 | 0.00 | 0.00 | 75 | 998.4 |
| 20260505053008 | 64 | 222 | 6.0 | 9.0 | 0.00 | 0.00 | 0.00 | 73 | 998.4 |
| 20260505052505 | 64 | 28 | 3.0 | 5.0 | 0.00 | 0.00 | 0.00 | 75 | 998.4 |
| 20260505052002 | 65 | 254 | 3.0 | 5.0 | 0.00 | 0.00 | 0.00 | 73 | 998.4 |
| 20260505051458 | 66 | 236 | 3.0 | 3.0 | 0.00 | 0.00 | 0.00 | 66 | 998.4 |
| 20260505050957 | 67 | 227 | 3.0 | 3.0 | 0.00 | 0.00 | 0.00 | 64 | 998.5 |
| 20260505050455 | 67 | 241 | 4.0 | 6.0 | 0.00 | 0.00 | 0.00 | 63 | 998.3 |